User: anonymous   Login
Location: Unspecified
(0.0000°N, 0.0000°E)
Time: 02:57:09
(UTC+00:00)
Language:

STARLINK-35570 - Orbit

View from above orbital plane
View from above orbital plane
View from above satellite
View from above satellite

Ground track
Ground track

The orbit is defined by the following mean orbital elements,

1 66090U          26145.59843358 +.00000000 +00000-0 +67516-3 0 00005
2 66090  53.1582 106.3540 0001663  92.7819 267.3372 15.30202938    01
Epoch (UTC): 25 May 2026 14:21:44
Eccentricity: 0.0001663
inclination: 53.1582°
perigee height: 474 km
apogee height: 476 km
right ascension of ascending node: 106.3540°
argument of perigee: 92.7819°
revolutions per day: 15.30202938
mean anomaly at epoch: 267.3372°

The dashed part of the orbit path shows where the satellite is in the earth's shadow,  

DLR